SCP
0 0 0 0 0 0 0 0 0 0 0 0 0 0 0 0 0 0 0 0 0 0
0 0 0 0 0 0 0 0 0 0 0 0 0 0 0 0 0 0 0 0 0 0
0 0 0 0 0 0 0 0 0 0 0 0 0 0 0 0 0 0 0 0 0 0
0 0 0 0 0 0 0 0 0 0 0 0 0 0 0 0 0 0 0 0 0 0
0 0 0 0 0 0 0 0 0 0 0 0 0 0 0 0 0 0 0 0 0 0
0 0 0 0 0 0 0 0 0 0 0 0 0 0 0 0 0 0 0 0 0 0
0 0 0 0 0 0 0 0 0 0 0 0 0 0 0 0 0 0 0 0 0 0
0 0 0 0 0 0 0 0 0 0 0 0 0 0 0 0 0 0 0 0 0 0
0 0 0 0 0 0 0 0 0 0 0 0 0 0 0 0 0 0 0 0 -0 0
0 0 0 0 0 0 0 0 0 0 0 0 0 0 0 0 0 0 0 0 -0 -0
0 0 0 0 0 0 0 0 0 0 0 0 0 0 0 0 0 0 0 0 -0 -0
0 0 0 0 0 0 0 0 0 0 0 0 0 0 0 0 0 0 0 0 0 0
0 0 0 0 0 0 0 0 0 0 0 0 0 0 0 0 0 0 -0 0 0 0
0 0 0 0 0 0 0 0 0 0 0 0 0 0 0 0 0 0 -0 -0 -0 -0
Wind_Speed_500mb
17 20 25 30 34 38 42 46 50 53 55 53 53 53 55 56 55 58 58 58 55 59
16 19 22 26 31 35 39 43 47 51 54 54 53 55 56 58 58 57 57 56 54 54
15 19 21 25 28 32 37 41 45 48 52 55 54 54 56 58 57 58 54 51 54 54
17 20 22 25 28 33 37 41 45 49 53 55 57 56 56 57 59 59 56 50 55 58
21 22 23 26 30 35 37 41 46 49 53 56 57 58 59 60 59 61 58 56 59 66
27 27 28 29 32 36 40 42 45 50 53 58 60 61 61 62 64 63 61 59 65 71
31 32 31 33 35 38 42 46 48 51 56 58 62 63 64 65 64 65 64 57 65 71
36 37 36 38 40 43 45 49 52 55 57 59 63 65 66 68 69 67 68 68 69 73
42 43 43 45 48 50 52 55 57 57 60 64 63 64 65 66 70 69 65 72 77 74
48 51 51 54 56 57 60 64 64 64 64 68 66 67 67 68 70 72 70 76 73 75
54 58 59 62 63 64 65 69 71 72 71 73 72 68 69 71 73 75 74 71 69 75
56 61 63 67 68 68 71 73 74 76 78 77 79 70 70 72 74 77 78 73 71 71
55 60 65 68 70 73 74 77 79 83 82 79 81 71 69 69 66 76 79 78 75 72
60 65 68 73 75 77 78 80 82 85 86 82 72 72 68 66 61 70 76 82 84 91
Wind_Direction_500mb
332 341 346 348 352 351 350 351 349 348 345 338 332 328 325 323 321 319 314 312 308 304
323 331 339 343 345 346 346 349 348 345 344 340 333 327 326 325 322 318 317 315 313 308
308 318 327 333 338 339 343 344 343 342 342 341 336 326 323 324 324 319 318 319 319 313
301 308 317 324 331 335 340 339 339 338 339 338 336 331 321 319 322 319 317 317 317 312
286 294 306 317 324 330 334 336 335 336 335 334 332 332 326 317 315 315 311 315 320 316
277 290 299 309 316 321 324 328 330 331 331 330 329 328 328 320 310 307 307 315 322 307
273 282 291 299 306 312 316 320 323 326 327 327 326 325 323 320 313 305 302 307 303 303
272 279 287 293 298 302 307 312 316 319 320 321 322 322 321 319 315 311 304 300 296 303
273 278 284 289 292 296 300 304 307 311 313 315 316 317 317 315 311 310 301 296 297 300
277 280 284 287 290 292 294 297 300 304 307 308 311 313 313 312 308 307 303 301 298 300
281 283 286 287 289 290 292 294 297 300 302 303 306 309 309 309 307 305 305 305 300 301
282 284 286 286 288 290 291 292 294 296 299 301 301 305 306 307 306 305 306 306 304 304
285 287 289 290 292 293 293 293 294 294 296 297 299 302 301 303 307 304 308 310 311 305
290 292 292 292 293 293 294 293 293 292 293 295 297 298 299 302 302 304 309 307 307 305
Wind_Speed_850mb
17 20 25 30 34 38 42 46 50 53 55 53 53 53 55 56 55 58 58 58 55 59
16 19 22 26 31 35 39 43 47 51 54 54 53 55 56 58 58 57 57 56 54 54
15 19 21 25 28 32 37 41 45 48 52 55 54 54 56 58 57 58 54 51 54 54
17 20 22 25 28 33 37 41 45 49 53 55 57 56 56 57 59 59 56 50 55 58
21 22 23 26 30 35 37 41 46 49 53 56 57 58 59 60 59 61 58 56 59 66
27 27 28 29 32 36 40 42 45 50 53 58 60 61 61 62 64 63 61 59 65 71
31 32 31 33 35 38 42 46 48 51 56 58 62 63 64 65 64 65 64 57 65 71
36 37 36 38 40 43 45 49 52 55 57 59 63 65 66 68 69 67 68 68 69 73
42 43 43 45 48 50 52 55 57 57 60 64 63 64 65 66 70 69 65 72 77 74
48 51 51 54 56 57 60 64 64 64 64 68 66 67 67 68 70 72 70 76 73 75
54 58 59 62 63 64 65 69 71 72 71 73 72 68 69 71 73 75 74 71 69 75
56 61 63 67 68 68 71 73 74 76 78 77 79 70 70 72 74 77 78 73 71 71
55 60 65 68 70 73 74 77 79 83 82 79 81 71 69 69 66 76 79 78 75 72
60 65 68 73 75 77 78 80 82 85 86 82 72 72 68 66 61 70 76 82 84 91
Wind_Direction_850mb
332 341 346 348 352 351 350 351 349 348 345 338 332 328 325 323 321 319 314 312 308 304
323 331 339 343 345 346 346 349 348 345 344 340 333 327 326 325 322 318 317 315 313 308
308 318 327 333 338 339 343 344 343 342 342 341 336 326 323 324 324 319 318 319 319 313
301 308 317 324 331 335 340 339 339 338 339 338 336 331 321 319 322 319 317 317 317 312
286 294 306 317 324 330 334 336 335 336 335 334 332 332 326 317 315 315 311 315 320 316
277 290 299 309 316 321 324 328 330 331 331 330 329 328 328 320 310 307 307 315 322 307
273 282 291 299 306 312 316 320 323 326 327 327 326 325 323 320 313 305 302 307 303 303
272 279 287 293 298 302 307 312 316 319 320 321 322 322 321 319 315 311 304 300 296 303
273 278 284 289 292 296 300 304 307 311 313 315 316 317 317 315 311 310 301 296 297 300
277 280 284 287 290 292 294 297 300 304 307 308 311 313 313 312 308 307 303 301 298 300
281 283 286 287 289 290 292 294 297 300 302 303 306 309 309 309 307 305 305 305 300 301
282 284 286 286 288 290 291 292 294 296 299 301 301 305 306 307 306 305 306 306 304 304
285 287 289 290 292 293 293 293 294 294 296 297 299 302 301 303 307 304 308 310 311 305
290 292 292 292 293 293 294 293 293 292 293 295 297 298 299 302 302 304 309 307 307 305